(72) Feronia
ephemeris date magn radius delta ra dec elong phase
Today19 Apr 202511.82.262 AU1.267 AU14h28m-13°28'169.7°4.6°
Opposition26 Apr 202511.42.251 AU1.245 AU14h21m-12°29'178.2°0.8°
(72) Feronia - 2025-04-19
astro.vanbuitenen.nl


 
-1 year
-1 month
-1 day
Now
+1 day
+1 month
+1 year

The interactive orbit chart above shows the body's path through the solar system and its position at the given date. Green and blue lines are shown perpendicular to the ecliptic plane: Green if the path is above the ecliptic plane, blue if it is below. (Left-click and drag to rotate the view; Right-click and drag to move the view; Use scroll wheel to zoom in our out.)

The orbital elements of Feronia are:

            e (Eccentricity)                : 0.1214213
            a (Semimajor axis)              : 2.2660464
            i (Inclination)                 : 5.41810
            Ω (Longitude of ascending node) : 207.93463
            ω (Argument of perihelion)      : 102.75319
            M (Mean anomaly)                : 282.48196
            Epoch                           : 2025 May 05

            L (Longitude of perihelion)     : 130.74317
            B (Latitude of perihelion)      : 5.28405
            P (Orbital period in years)     : 3.41            
        

The light curve chart below shows the estimated development of the minor planet's magnitude.


The all-sky chart below shows the path of the minor planet over the same period as the light curve. The current position is marked yellow.





The following chart shows the path of the minor planet in the next few days. The field of view is optimized for (~10x50) binoculars and finderscopes. A more printer-friendly version of the same chart can be found below.




Ephemerides:
Date       Time       RA (2000)    DEC (2000)    delta   radius  elong  phase   PA    magn
2025-04-19 00:00 UT   14 28 24.9   -13 28 29     1.267    2.262  169.7    4.6   282   11.8 
2025-04-19 21:15 UT   14 27 37.4   -13 21 46     1.263    2.260  170.7    4.1   281   11.7 
2025-04-20 00:00 UT   14 27 31.2   -13 20 53     1.263    2.260  170.9    4.0   281   11.7 
2025-04-21 00:00 UT   14 26 36.8   -13 13 13     1.259    2.259  172.1    3.5   280   11.7 
2025-04-22 00:00 UT   14 25 41.8   -13 05 28     1.256    2.258  173.3    3.0   278   11.6 
2025-04-23 00:00 UT   14 24 46.2   -12 57 40     1.253    2.256  174.5    2.5   275   11.6 
2025-04-24 00:00 UT   14 23 50.0   -12 49 48     1.251    2.255  175.6    1.9   271   11.6 
2025-04-25 00:00 UT   14 22 53.5   -12 41 53     1.248    2.253  176.8    1.4   263   11.5 
2025-04-26 00:00 UT   14 21 56.7   -12 33 57     1.246    2.252  177.8    1.0   248   11.5 
2025-04-27 00:00 UT   14 20 59.6   -12 25 58     1.244    2.251  178.4    0.7   215   11.4 
2025-04-28 00:00 UT   14 20 02.3   -12 17 59     1.243    2.249  178.2    0.8   172   11.4 
2025-04-29 00:00 UT   14 19 05.0   -12 09 59     1.241    2.248  177.4    1.2   148   11.5 
2025-04-30 00:00 UT   14 18 07.7   -12 01 59     1.240    2.246  176.3    1.6   136   11.5 
2025-05-01 00:00 UT   14 17 10.5   -11 53 59     1.239    2.245  175.2    2.2   130   11.5 
2025-05-02 00:00 UT   14 16 13.5   -11 46 01     1.239    2.244  174.0    2.7   126   11.6 
2025-05-03 00:00 UT   14 15 16.8   -11 38 05     1.239    2.242  172.8    3.2   124   11.6 
2025-05-04 00:00 UT   14 14 20.5   -11 30 11     1.239    2.241  171.6    3.8   122   11.6 
2025-05-05 00:00 UT   14 13 24.6   -11 22 20     1.239    2.239  170.4    4.3   121   11.7 
2025-05-06 00:00 UT   14 12 29.3   -11 14 33     1.239    2.238  169.2    4.9   120   11.7 
2025-05-07 00:00 UT   14 11 34.5   -11 06 49     1.240    2.237  168.0    5.4   119   11.7 
2025-05-08 00:00 UT   14 10 40.4   -10 59 10     1.241    2.235  166.7    5.9   118   11.8 
2025-05-09 00:00 UT   14 09 47.1   -10 51 36     1.242    2.234  165.5    6.5   118   11.8 
2025-05-10 00:00 UT   14 08 54.6   -10 44 08     1.244    2.232  164.3    7.0   117   11.8 
2025-05-11 00:00 UT   14 08 03.0   -10 36 45     1.245    2.231  163.1    7.5   117   11.8 
2025-05-12 00:00 UT   14 07 12.4   -10 29 30     1.247    2.230  161.9    8.1   117   11.9 
2025-05-13 00:00 UT   14 06 22.7   -10 22 21     1.249    2.228  160.7    8.6   116   11.9 
2025-05-14 00:00 UT   14 05 34.2   -10 15 19     1.252    2.227  159.6    9.1   116   11.9 
2025-05-15 00:00 UT   14 04 46.8   -10 08 25     1.254    2.225  158.4    9.6   116   11.9 
2025-05-16 00:00 UT   14 04 00.5   -10 01 40     1.257    2.224  157.2   10.1   116   12.0 
2025-05-17 00:00 UT   14 03 15.6   -09 55 03     1.260    2.223  156.0   10.7   115   12.0 
2025-05-18 00:00 UT   14 02 31.9   -09 48 35     1.264    2.221  154.9   11.2   115   12.0 
2025-05-19 00:00 UT   14 01 49.6   -09 42 17     1.267    2.220  153.7   11.7   115   12.0 


    Terminology:
            
    delta:  distance between minor planet and earth in AU
    radius: distance between minor planet and sun in AU
    magn:   magnitude (brightness) estimate    
    ra:     right ascension in hours (24h = 360deg)
    dec:    declination in degrees
    elong:  elongation in degrees (angle sun-earth-minor planet)    
    phase:  phase angle in degrees (angle sun-minor planet-earth)        
    AU:     Astronomical Unit (mean distance between earth and sun: 149597870.7 km
    

Orbital elements provided by the MPC (Minor Planet Center).
Calculations by a modified version of AAPlus, a C# implementation of the AA+ project by PJ Naughter from the algorithms presented in the book "Astronomical Algorithms" by Jean Meeus.
NGC2000 dso catalog and star labels from VizieR as provided by the Strasbourg astronomical Data Center.
Tycho2 catalog from the ESO archive.